Regional Weather Roundup
Issued by NWS

Home | Current Version | Previous Version | Text Only | Print | Product List | Glossary On
Versions: 1 2 3 4 5 6 7 8 9 10 11 12 13 14 15 16 17 18 19 20 21 22 23 24 25 26 27 28 29 30 31 32 33 34 35 36 37 38 39 40 41 42 43 44 45 46 47 48 49
000
ASUS46 KPQR 191610
RWROR

OREGON REGIONAL WEATHER ROUNDUP
NATIONAL WEATHER SERVICE PORTLAND OR
900 AM PDT FRI SEP 19 2014

NOTE: "FAIR" INDICATES FEW OR NO CLOUDS BELOW 12,000 FEET WITH
NO SIGNIFICANT WEATHER AND/OR OBSTRUCTIONS TO VISIBILITY.

ORZ001>013-191700-
NORTHWEST OREGON


CITY           SKY/WX    TMP DP  RH WIND       PRES   REMARKS
ASTORIA        SUNNY     64  59  83 SW7       30.08S
NEWPORT        FOG       55  55 100 E3        30.12R VSB 1/2
PORTLAND       MOSUNNY   66  60  81 CALM      30.09R
VANCOUVER WA   PTSUNNY   65  58  78 CALM      30.09R
SCAPPOOSE      CLOUDY    61  58  90 CALM      30.09R
HILLSBORO      MOSUNNY   60  57  89 NW5       30.09R
AURORA         SUNNY     62  57  83 CALM      30.10R
MCMINNVILLE    SUNNY     61  56  83 CALM      30.10R
SALEM          SUNNY     63  56  78 CALM      30.08S
CORVALLIS      SUNNY     57  55  94 CALM      30.11R
EUGENE         MOSUNNY   60  54  80 CALM      30.09S
$$

ORZ021-028-191700-
SOUTHWEST OREGON


CITY           SKY/WX    TMP DP  RH WIND       PRES   REMARKS
NORTH BEND     MOSUNNY   57  57 100 CALM      30.08R
BROOKINGS      SUNNY     65  61  87 CALM      29.98F
ROSEBURG       CLOUDY    60  56  86 CALM      30.08R FOG
SEXTON SUMMIT  SUNNY     60  53  77 VRB3      30.12R
MEDFORD        SUNNY     63  53  70 CALM      30.07R
$$

ORZ009-041-191700-
COLUMBIA GORGE


CITY           SKY/WX    TMP DP  RH WIND       PRES   REMARKS
TROUTDALE      SUNNY     64  58  80 CALM      30.08R
THE DALLES     SUNNY     70  55  59 W7        30.03S
$$

ORZ029>031-042>050-061>064-191700-
EASTERN OREGON


CITY           SKY/WX    TMP DP  RH WIND       PRES   REMARKS
REDMOND        SUNNY     58  48  69 SE6       30.14R
BEND           SUNNY     57  48  72 CALM      30.17R
KLAMATH FALLS  SUNNY     55  47  74 CALM      30.15R
LAKEVIEW       SUNNY     59  45  58 CALM      30.18S
HERMISTON      SUNNY     69  52  54 W10       30.04R
PENDLETON      SUNNY     65  50  58 S6        30.06R
JOHN DAY       CLOUDY    61  50  66 W3        30.15R
MEACHAM        CLOUDY    57  48  72 VRB5      30.13R
LA GRANDE      CLOUDY    63  41  45 CALM      30.11R
BAKER CITY     PTSUNNY   61  47  59 CALM      30.13R
BURNS          SUNNY     58  48  69 S3        30.16S
ROME             N/A     63  44  50 E7        30.13R
ONTARIO        SUNNY     70  48  45 W14       30.08R
$$


USA.gov is the U.S. government's official web portal to all federal, state and local government web resources and services.